Weather History for Kansas City International, MO

Change the Weather History Date:

Tuesday, January 1, 2013

  Actual Average Record
Temperature  
Mean Temperature 16 °F 29 °F  
Max Temperature 23 °F 38 °F 64 °F (1897)
Min Temperature 9 °F 20 °F -13 °F (1974)
Degree Days  
Heating Degree Days 49 36  
Month to date heating degree days 49 36  
Since 1 July heating degree days 1887 2078  
Cooling Degree Days 0 0  
Month to date cooling degree days 0 0  
Year to date cooling degree days 0 0  
Moisture  
Dew Point 6 °F    
Average Humidity 67    
Maximum Humidity 84    
Minimum Humidity 49    
Precipitation  
Precipitation T in 0.03 in 1.56 in (1892)
Month to date precipitation T 0.03  
Year to date precipitation T 0.03  
Snow  
Snow T in 0.10 in 3.50 in (1948)
Month to date snowfall T 0.1  
Since 1 July snowfall 4.6 6.3  
Snow Depth 1.00 in    
Sea Level Pressure  
Sea Level Pressure 30.28 in    
Wind  
Wind Speed 6 mph (NNW)    
Max Wind Speed 13 mph    
Max Gust Speed 16 mph    
Visibility 10 miles    
Events Snow    
T = Trace of Precipitation, MM = Missing Value Source: NWS Daily Summary

Daily Weather History Graph

Daily Weather History Graph

Search for Another Location

Airport:

Trip Planner

Search our weather history database for the weather conditions in past years. The results will help you decide how hot, cold, wet, or windy it might be!

Date:

Astronomy

Jan. 01, 2013 Rise Set
Actual Time 7:38 AM CST 5:06 PM CST
Civil Twilight 7:08 AM CST 5:36 PM CST
Nautical Twilight 6:35 AM CST 6:10 PM CST
Astronomical Twilight 6:02 AM CST 6:42 PM CST
Moon 9:36 PM CST (1/1) 9:53 AM CST (1/1)
Length of Visible Light 10h 28m
Length of Day
9h 28m
Waning Gibbous, 83% of the Moon is Illuminated
Jan 1
Waning Gibbous
Jan 4
Last Quarter
Jan 11
New
Jan 18
First Quarter
Jan 26
Full

Hourly Weather History & Observations

Time (CST) Temp. Windchill Dew Point Humidity Pressure Visibility Wind Dir Wind Speed Gust Speed Precip Events Conditions
12:35 AM 19.4 °F 10.4 °F 15.8 °F 86% 30.17 in 8.0 mi NNE 6.9 mph - 0.00 in Snow Light Snow
12:53 AM 19.0 °F 8.2 °F 15.1 °F 85% 30.21 in 9.0 mi North 9.2 mph - 0.00 in Snow Light Snow
1:53 AM 18.0 °F 7.7 °F 12.9 °F 81% 30.23 in 9.0 mi North 8.1 mph - 0.00 in   Overcast
2:53 AM 18.0 °F 6.1 °F 10.9 °F 74% 30.25 in 10.0 mi NNE 10.4 mph - N/A   Overcast
3:53 AM 16.0 °F 4.4 °F 9.0 °F 74% 30.25 in 10.0 mi North 9.2 mph - N/A   Overcast
4:53 AM 14.0 °F 2.9 °F 7.0 °F 74% 30.24 in 10.0 mi North 8.1 mph - N/A   Partly Cloudy
5:53 AM 12.2 °F 0.7 °F 5.0 °F 73% 30.20 in 10.0 mi North 8.1 mph - N/A   Partly Cloudy
6:53 AM 10.4 °F -0.4 °F 3.2 °F 73% 30.23 in 10.0 mi North 6.9 mph - N/A   Partly Cloudy
7:53 AM 10.0 °F 1.8 °F 3.9 °F 76% 30.32 in 10.0 mi North 4.6 mph - N/A   Mostly Cloudy
8:53 AM 12.9 °F 0.7 °F 5.0 °F 71% 30.32 in 10.0 mi North 9.2 mph - N/A   Mostly Cloudy
9:53 AM 15.1 °F 6.4 °F 6.1 °F 68% 30.34 in 10.0 mi NNE 5.8 mph - N/A   Mostly Cloudy
10:53 AM 16.0 °F 7.4 °F 5.0 °F 62% 30.35 in 10.0 mi North 5.8 mph - N/A   Mostly Cloudy
11:53 AM 18.0 °F - 5.0 °F 57% 30.33 in 10.0 mi Calm Calm - N/A   Scattered Clouds
12:53 PM 18.0 °F 12.7 °F 5.0 °F 57% 30.32 in 10.0 mi NNW 3.5 mph - N/A   Overcast
1:53 PM 19.9 °F 12.1 °F 5.0 °F 52% 30.30 in 10.0 mi NNW 5.8 mph - N/A   Overcast
2:53 PM 21.9 °F 17.2 °F 8.1 °F 55% 30.31 in 10.0 mi NW 3.5 mph - N/A   Overcast
3:53 PM 21.9 °F 14.5 °F 6.1 °F 51% 30.30 in 10.0 mi NNW 5.8 mph - N/A   Mostly Cloudy
4:53 PM 19.9 °F - 3.9 °F 50% 30.30 in 10.0 mi Calm Calm - N/A   Scattered Clouds
5:53 PM 18.0 °F 12.7 °F 1.9 °F 50% 30.30 in 10.0 mi WNW 3.5 mph - N/A   Clear
6:53 PM 17.1 °F 10.0 °F 3.9 °F 56% 30.29 in 10.0 mi West 4.6 mph - N/A   Clear
7:53 PM 15.1 °F 6.4 °F 3.0 °F 59% 30.30 in 10.0 mi West 5.8 mph - N/A   Clear
8:53 PM 12.0 °F 2.7 °F 1.9 °F 64% 30.29 in 10.0 mi SSW 5.8 mph - N/A   Clear
9:53 PM 12.0 °F 1.5 °F 3.0 °F 67% 30.29 in 10.0 mi SSW 6.9 mph - N/A   Clear
10:53 PM 12.9 °F 3.8 °F 3.0 °F 65% 30.27 in 10.0 mi SSW 5.8 mph - N/A   Clear
11:53 PM 14.0 °F 2.0 °F 3.9 °F 64% 30.27 in 10.0 mi SSW 9.2 mph - N/A   Clear